Lid_Strength_Index
8 8 8 9 9 9 9 9 9 9 9 8 8 8 9 10 10 11 11 11 12 12 12 11 11 10 11 11 12 12 12 12 13 12 11 11 11 11 10 10 9 10 9
8 8 8 8 9 9 9 9 9 9 8 8 8 9 9 10 11 11 12 12 12 12 12 12 11 11 12 12 12 12 12 11 12 13 12 12 12 11 11 10 9 8 9
8 8 8 9 9 9 9 9 9 9 9 9 9 9 9 10 11 11 12 12 12 12 12 12 12 12 13 12 12 12 12 11 11 13 13 12 11 10 11 10 10 9 7
8 8 9 9 9 9 9 9 9 9 9 9 9 9 10 11 11 11 12 12 13 12 12 12 12 12 12 13 12 12 12 12 12 13 13 12 11 10 10 10 10 9 9
8 8 9 9 9 9 9 9 9 9 9 9 9 10 10 11 11 12 12 13 13 13 13 12 12 11 11 11 12 12 12 12 13 13 13 12 12 11 11 10 10 9 9
8 8 8 9 9 9 10 10 10 9 9 10 10 10 11 10 10 10 12 13 13 13 13 13 13 12 12 11 11 10 11 12 13 13 12 12 12 11 10 10 10 10 11
8 8 8 8 9 9 10 10 10 10 10 10 11 11 12 12 10 10 11 13 14 14 14 14 13 12 12 13 11 11 11 10 10 11 12 11 10 9 9 9 9 10 10
8 8 8 8 9 10 10 10 11 10 11 11 11 11 12 11 10 10 11 13 14 14 14 14 14 14 13 12 12 12 11 11 10 10 10 9 8 8 8 8 8 8 8
8 8 8 8 9 10 11 12 11 11 11 11 11 11 12 12 10 10 12 13 14 14 14 13 13 13 12 11 11 12 12 11 9 9 8 8 7 7 7 8 9 10 10
8 8 8 8 9 10 10 12 11 11 11 11 12 12 11 12 10 10 11 13 14 14 13 13 12 12 11 10 12 12 13 12 11 10 9 9 8 7 7 7 8 10 10
8 8 8 8 9 10 11 11 11 11 11 12 12 13 13 12 12 10 10 13 14 14 14 13 13 11 11 10 11 11 12 11 10 10 10 9 10 9 8 8 8 9 10
8 8 8 9 9 10 11 11 11 12 13 13 13 14 14 13 12 12 11 11 11 14 14 13 13 11 11 11 11 10 10 10 10 10 11 11 10 10 9 8 8 8 8
8 8 9 9 10 11 11 12 12 12 13 13 14 15 15 14 14 12 12 11 12 14 13 13 12 11 11 12 11 11 11 10 10 11 11 11 10 9 9 9 8 8 8
8 9 10 10 11 11 11 12 12 14 15 14 14 15 16 15 15 14 14 14 14 14 13 14 14 13 12 12 11 11 11 10 10 11 11 10 10 10 10 9 10 9 9
8 9 10 10 10 12 12 12 12 13 12 14 14 14 16 16 15 13 13 14 14 13 12 12 15 13 13 12 11 11 11 10 11 11 10 11 11 10 10 9 9 9 9
9 10 10 11 11 12 13 14 12 11 11 11 11 12 13 12 12 11 11 11 11 12 13 13 15 14 13 13 12 12 11 11 10 11 10 10 11 10 10 9 9 9 10
9 9 10 11 11 12 14 13 13 14 11 11 11 11 11 12 11 11 11 11 12 12 13 14 14 13 13 12 12 11 11 10 10 11 11 11 10 10 10 10 10 11 11
8 10 10 11 11 12 12 13 13 14 15 15 13 12 11 11 11 11 11 12 15 13 13 13 13 12 12 12 11 11 11 10 10 11 11 11 10 10 10 10 11 12 11
9 10 10 11 12 12 12 13 13 14 15 15 15 14 14 12 12 12 12 15 15 14 13 13 12 12 12 12 11 11 11 11 11 11 11 11 11 10 10 9 11 11 11
9 10 11 11 12 12 12 13 14 14 14 14 15 15 15 16 18 19 17 17 16 13 13 13 12 12 12 11 11 11 11 11 11 11 12 11 11 10 10 10 10 11 11
9 11 11 11 11 12 12 12 13 14 14 14 15 15 16 15 17 17 16 17 16 15 13 12 12 12 12 11 11 11 11 11 11 12 12 12 12 10 9 9 10 11 11
10 10 11 11 11 12 12 13 13 13 14 15 16 16 16 15 16 16 16 17 17 14 12 12 12 12 12 12 11 11 11 11 11 12 12 12 11 10 10 10 11 13 13
10 11 11 12 11 13 13 13 13 14 15 15 15 16 15 15 17 17 17 20 17 14 12 12 12 12 11 11 11 10 11 11 11 11 12 12 11 10 10 12 12 13 14
10 10 11 11 12 12 13 13 14 15 15 15 16 16 17 17 14 19 21 21 18 17 12 12 12 12 11 11 11 10 10 11 11 12 11 11 11 10 12 12 12 13 14
10 10 11 11 11 12 13 13 14 14 15 16 17 16 17 17 18 21 23 22 19 18 12 12 12 12 11 11 11 10 11 12 12 11 11 10 10 10 12 11 12 12 13
10 10 10 11 12 12 13 14 15 15 15 16 16 18 19 19 20 22 22 21 19 14 12 12 12 12 11 11 11 11 11 11 11 11 9 10 10 13 12 12 12 13 12